This is the latest recevied weather packets stored in our database for station/object VU3ZAG-WX. If no packets are shown the sender has not sent any weather packets the latest 10 day(s).
| Time | Temp. | Humidity | Pressure | Rain* | Wind** | Luminosity | Snow |
|---|---|---|---|---|---|---|---|
| 1777365129 | 38.89° C | 52% | 1007.2 hPa | - | - | - | - |
| 1777364524 | 38.89° C | 52% | 1007.4 hPa | - | - | - | - |
| 1777363918 | 38.33° C | 54% | 1007.5 hPa | - | - | - | - |
| 1777363313 | 38.33° C | 54% | 1007.6 hPa | - | - | - | - |
| 1777362704 | 38.89° C | 51% | 1007.8 hPa | - | - | - | - |
| 1777362099 | 38.33° C | 53% | 1007.9 hPa | - | - | - | - |
| 1777361493 | 38.33° C | 53% | 1008.1 hPa | - | - | - | - |
| 1777360888 | 38.33° C | 54% | 1008.2 hPa | - | - | - | - |
| 1777360282 | 38.33° C | 52% | 1008.4 hPa | - | - | - | - |
| 1777359677 | 37.78° C | 55% | 1008.5 hPa | - | - | - | - |
| 1777359072 | 37.78° C | 55% | 1008.6 hPa | - | - | - | - |
| 1777358466 | 38.33° C | 54% | 1008.6 hPa | - | - | - | - |
| 1777357861 | 38.33° C | 56% | 1008.7 hPa | - | - | - | - |
| 1777357256 | 38.33° C | 53% | 1008.8 hPa | - | - | - | - |
| 1777356651 | 38.33° C | 54% | 1008.8 hPa | - | - | - | - |
| 1777356046 | 38.33° C | 52% | 1008.9 hPa | - | - | - | - |
| 1777355440 | 38.33° C | 52% | 1008.9 hPa | - | - | - | - |
| 1777354835 | 38.33° C | 51% | 1008.9 hPa | - | - | - | - |
| 1777354230 | 37.78° C | 52% | 1008.9 hPa | - | - | - | - |
| 1777353625 | 37.22° C | 53% | 1008.9 hPa | - | - | - | - |
| 1777353019 | 37.22° C | 55% | 1009 hPa | - | - | - | - |
| 1777352414 | 37.22° C | 55% | 1008.9 hPa | - | - | - | - |
| 1777351809 | 37.22° C | 53% | 1008.9 hPa | - | - | - | - |
| 1777351203 | 36.67° C | 51% | 1008.9 hPa | - | - | - | - |
| 1777350598 | 36.11° C | 55% | 1008.9 hPa | - | - | - | - |
* Rain since midnight (hover to see other rain measurements)
** Current wind speed in m/s (hover to see current wind gust speed)